Погода в Озерках

Россия / Белгородская область     51°15′04″N   38°01′00″E
темп.,
°C
ветер,
м/с
пор.,
м/с
влажн.,
%
обл.,
%
осадки,
мм/ч
давл.,
гПа
погр.,
м
29 июня, ср
ср2900:00+18всв410873 0.0 1018259
03:00+15св35925 0.0 101980
06:00+16всв36885 0.0 1019168
09:00+20в456536 0.0 1019609
12:00+22в335665 0.0 10201326
15:00+23всв234996 0.0 10191935
18:00+24ссв22540 0.0 10171697
21:00+17св337699 0.0 101829
30 июня, чт
чт3000:00+14всв3379100 0.0 101846
03:00+15в2281100 0.0 101824
06:00+15всв238098 0.0 101891
09:00+19всв33698 0.0 1018482
12:00+22всв335918 0.0 10171197
15:00+23ссв43483 0.1 10171983
18:00+22с355618 0.0 10161836
21:00+17ссв227521 0.0 101714
1 июля, пт
пт100:00+15с227695 0.0 101715
03:00+13ссз33820 0.0 101733
06:00+14ссз410820 0.0 1017267
09:00+20с69600 0.0 1017785
12:00+21с810490 0.0 10172062
15:00+21ссв79470 0.0 10181982
18:00+18ссв69560 0.0 10181460
21:00+13ссв49685 0.0 1021161
2 июля, сб
сб200:00+11с33692 0.0 102140
03:00+10ссз33780 0.0 102240
06:00+11ссз38780 0.0 1022197
09:00+17ссз57580 0.0 1022706
12:00+20с56455 0.0 10211625
15:00+22с56440 0.0 10201780
18:00+21ссз46555 0.0 10201244
21:00+16ссз22735 0.0 102017
3 июля, вс
вс300:00+14сз228072 0.0 101915
03:00+14зсз347989 0.0 101970
06:00+15зсз411816 0.0 1018245
09:00+20сз597030 0.0 1017331
12:00+26сз675614 0.0 10161251
15:00+27ссз78566 0.0 10151507
18:00+26с486348 0.0 1015776
21:00+21ссз337972 0.0 101636